Location: Vancouver
(49.2500°N, 123.1330°W)
Time: 18:21:41
(UTC-08:00)

Cosmos 2333 Rocket - Visible Passes

Search period start: 28 November 2014 00:00
Search period end: 08 December 2014 00:00
Orbit: 841 x 861 km, 70.9° (Epoch: 28 November)

Date Brightness Start Highest point End Pass type
(mag) Time Alt. Az. Time Alt. Az. Time Alt. Az.
28 Nov 4.2 18:11:25 10° N 18:13:10 12° NNE 18:13:10 12° NNE visible
28 Nov 4.5 19:54:13 10° NNW 19:55:10 15° NNW 19:55:10 15° NNW visible
29 Nov 4.1 17:59:08 10° N 18:01:02 12° NNE 18:01:16 12° NNE visible
29 Nov 4.3 19:41:57 10° NNW 19:43:16 17° N 19:43:16 17° N visible
30 Nov 4.1 17:46:52 10° N 17:48:46 12° NNE 17:49:24 11° NNE visible
30 Nov 4.1 19:29:40 10° NNW 19:31:25 19° N 19:31:25 19° N visible
01 Dec 4.1 17:34:35 10° N 17:36:29 12° NNE 17:37:35 11° NE visible
01 Dec 3.9 19:17:23 10° NNW 19:19:36 22° N 19:19:36 22° N visible
02 Dec 4.1 17:22:18 10° N 17:24:12 12° NNE 17:25:49 10° NE visible
02 Dec 3.6 19:05:06 10° NNW 19:07:50 25° N 19:07:50 25° N visible
02 Dec 4.9 20:49:20 10° NW 20:49:51 13° NW 20:49:51 13° NW visible
03 Dec 4.1 17:10:02 10° N 17:11:55 12° NNE 17:13:49 10° NE visible
03 Dec 3.3 18:52:50 10° NNW 18:56:07 28° N 18:56:07 28° N visible
03 Dec 4.6 20:37:03 10° NW 20:38:09 16° NW 20:38:09 16° NW visible
04 Dec 4.0 16:57:45 10° N 16:59:39 12° NNE 17:01:32 10° NE visible
04 Dec 3.1 18:40:33 10° NNW 18:44:30 32° NNE 18:44:30 32° NNE visible
04 Dec 4.4 20:24:47 10° NW 20:26:32 20° NW 20:26:32 20° NW visible
05 Dec 2.8 18:28:16 10° NNW 18:32:58 35° NE 18:32:58 35° NE visible
05 Dec 4.0 20:12:30 10° NW 20:15:01 26° NW 20:15:01 26° NW visible
06 Dec 2.7 18:16:00 10° NNW 18:21:11 36° NE 18:21:35 35° ENE visible
06 Dec 3.6 20:00:13 10° NW 20:03:38 34° WNW 20:03:38 34° WNW visible
07 Dec 2.7 18:03:43 10° NNW 18:08:54 36° NE 18:10:24 31° E visible
07 Dec 3.2 19:47:57 10° NW 19:52:28 44° W 19:52:28 44° W visible
